STAR2 KBUF-KDTW

Flight info

Callsign STAR2
Flight time N/A
Altitude VFR/175
Route
Aircraft C172/L-DOV/C

Departure

Time 2026-05-05 20:24
Airport Buffalo Niagara International Airport (KBUF)

Arrival

Time N/A
Airport Detroit Metropolitan Wayne County Airport (KDTW)
Time Latitude Longitude Altitude Speed Heading
2026-05-05 20:13 42.93542 -78.73170 706 ft 0 kts 135°
2026-05-05 20:15 42.93539 -78.73173 706 ft 1 kts 215°
2026-05-05 20:15 42.93550 -78.73194 706 ft 0 kts 318°
2026-05-05 20:17 42.93551 -78.73195 706 ft 0 kts 318°
2026-05-05 20:18 42.93616 -78.73187 706 ft 24 kts 24°
2026-05-05 20:18 42.93787 -78.73084 713 ft 29 kts 43°
2026-05-05 20:18 42.93967 -78.72853 703 ft 46 kts 44°
2026-05-05 20:19 42.94195 -78.72551 713 ft 52 kts 44°
2026-05-05 20:19 42.94341 -78.72363 715 ft 8 kts 43°
2026-05-05 20:19 42.94405 -78.72278 715 ft 15 kts 46°
2026-05-05 20:19 42.94461 -78.72207 715 ft 19 kts 42°
2026-05-05 20:20 42.94641 -78.71967 714 ft 42 kts 45°
2026-05-05 20:20 42.93543 -78.73172 706 ft 0 kts 134°
2026-05-05 20:21 42.93540 -78.73173 706 ft 2 kts 174°
2026-05-05 20:21 42.93555 -78.73204 692 ft 1 kts 326°
2026-05-05 20:21 42.93599 -78.73213 706 ft 12 kts 24°
2026-05-05 20:21 42.93738 -78.73111 712 ft 33 kts 24°
2026-05-05 20:22 42.93960 -78.72861 705 ft 50 kts 43°
2026-05-05 20:22 42.94237 -78.72500 719 ft 60 kts 43°
2026-05-05 20:22 42.94512 -78.72145 715 ft 47 kts 43°
2026-05-05 20:22 42.94723 -78.71852 711 ft 30 kts 44°
2026-05-05 20:23 42.94829 -78.71869 719 ft 17 kts 289°
2026-05-05 20:23 42.94788 -78.71958 711 ft 0 kts 223°
2026-05-05 20:23 42.94689 -78.72086 711 ft 102 kts 224°
2026-05-05 20:23 42.93558 -78.73618 967 ft 356 kts 226°
2026-05-05 20:24 42.91549 -78.76458 2198 ft 516 kts 204°
2026-05-05 20:24 42.87536 -78.78621 2530 ft 697 kts 204°
2026-05-05 20:24 42.82918 -78.81535 3468 ft 750 kts 219°
2026-05-05 20:24 42.80530 -78.87658 6331 ft 747 kts 244°
2026-05-05 20:25 42.78361 -78.94232 7131 ft 778 kts 245°
2026-05-05 20:25 42.76116 -79.01002 6522 ft 789 kts 246°
2026-05-05 20:25 42.73905 -79.07907 5428 ft 795 kts 246°
2026-05-05 20:25 42.71736 -79.14761 5025 ft 776 kts 247°
2026-05-05 20:26 42.69888 -79.20629 12458 ft 694 kts 245°
2026-05-05 20:26 42.67767 -79.27094 12488 ft 788 kts 246°
2026-05-05 20:26 42.65545 -79.34133 11251 ft 818 kts 246°
2026-05-05 20:26 42.63371 -79.41266 9930 ft 819 kts 248°
2026-05-05 20:27 42.61433 -79.48489 9624 ft 811 kts 250°
2026-05-05 20:27 42.60362 -79.55858 9866 ft 796 kts 269°
2026-05-05 20:27 42.58247 -80.04896 12419 ft 794 kts 265°
2026-05-05 20:27 42.58340 -80.12323 14636 ft 789 kts 269°
2026-05-05 20:28 42.58232 -80.19570 17572 ft 782 kts 267°
2026-05-05 20:28 42.58184 -80.26671 21594 ft 696 kts 268°
2026-05-05 20:28 42.58197 -80.33551 24447 ft 746 kts 269°
2026-05-05 20:28 42.58259 -80.40439 19765 ft 762 kts 268°
2026-05-05 20:29 42.58137 -80.48039 12062 ft 865 kts 266°
2026-05-05 20:29 42.55470 -81.10200 11455 ft 8460 kts 266°
2026-05-05 20:29 42.52019 -81.89603 11479 ft 8415 kts 266°
2026-05-05 20:29 42.49655 -82.43231 10433 ft 834 kts 262°
2026-05-05 20:30 42.48780 -82.50801 5597 ft 750 kts 264°
2026-05-05 20:30 42.49337 -82.57343 5572 ft 563 kts 253°
2026-05-05 20:30 42.48089 -82.61862 12560 ft 489 kts 234°
2026-05-05 20:30 42.45006 -82.61435 14969 ft 498 kts 159°
2026-05-05 20:31 42.44224 -82.58307 9863 ft 472 kts 66°
2026-05-05 20:31 42.43067 -82.55694 4426 ft 299 kts 241°
2026-05-05 20:31 42.42839 -82.56296 2550 ft 343 kts 246°
2026-05-05 20:32 42.41726 -82.57542 642 ft 291 kts 207°
2026-05-05 20:32 42.40084 -82.58724 1657 ft 254 kts 222°